This demonstration page uses our WeatherBlox Daily Observations layout. Learn more.

Left ArrowRight Arrow

Hourly Observations for September 1, 2022

Temp ( °F °C ) Dew Point ( °F °C ) Humidity (%) Winds ( mph kmh ) Pressure ( in mb ) Visibility ( mi km ) Precip ( " mm )
12:53 am 00:53 Clear 60 15.6 57 13.9 90 90 Calm 30.06 1018 10 16 0.00 0.00
1:53 am 01:53 Clear 58 14.4 56 13.3 93 93 Calm 30.06 1018 10 16 0.00 0.00
2:53 am 02:53 Clear 59 15 57 13.9 93 93 Calm 30.06 1018 10 16 0.00 0.00
3:53 am 03:53 Clear 58 14.4 56 13.3 93 93 Calm 30.06 1018 10 16 0.00 0.00
4:53 am 04:53 Clear 57 13.9 55 12.8 93 93 Calm 30.06 1018 9 14 0.00 0.00
5:53 am 05:53 Clear 56 13.3 54 12.2 93 93 Calm 30.07 1018 9 14 0.00 0.00
6:33 am 06:33 Mostly Clear with Mist and Fog 56 13.3 55 12.8 97 97 Calm 30.08 1019 2 3 0.00 0.00
6:40 am 06:40 Mostly Cloudy with Mist and Fog 56 13.3 54 12.2 93 93 Calm 30.09 1019 2 3 0.00 0.00
6:46 am 06:46 Mostly Clear with Mist and Fog 56 13.3 54 12.2 93 93 Calm 30.09 1019 1 1 0.00 0.00
6:53 am 06:53 Mostly Clear with Fog 56 13.3 54 12.2 93 93 Calm 30.07 1018 1 1 0.00 0.00
6:59 am 06:59 Partly Cloudy with Mist and Fog 56 13.3 54 12.2 93 93 Calm 30.09 1019 1 2 0.00 0.00
7:03 am 07:03 Mostly Clear with Mist and Fog 56 13.3 55 12.8 97 97 Calm 30.09 1019 3 5 0.00 0.00
7:53 am 07:53 Sunny 59 15 58 14.4 96 96 Calm 30.10 1019 9 14 0.00 0.00
8:53 am 08:53 Sunny 66 18.9 62 16.7 87 87 Calm 30.11 1020 10 16 0.00 0.00
9:53 am 09:53 Sunny 71 21.7 62 16.7 73 73 SW 3 6 30.11 1020 10 16 0.00 0.00
10:53 am 10:53 Sunny 76 24.4 62 16.7 62 62 S 3 6 30.11 1020 10 16 0.00 0.00
11:53 am 11:53 Sunny 82 27.8 63 17.2 53 53 Calm 30.11 1020 10 16 0.00 0.00
12:53 pm 12:53 Sunny 85 29.4 59 15 42 42 NW 6 9 30.09 1019 10 16 0.00 0.00
1:53 pm 13:53 Partly Cloudy 85 29.4 56 13.3 37 37 ESE 5 7 30.08 1019 10 16 0.00 0.00
2:53 pm 14:53 Partly Cloudy 88 31.1 58 14.4 36 36 WNW 7 11 30.07 1018 10 16 0.00 0.00
3:53 pm 15:53 Mostly Cloudy 88 31.1 58 14.4 36 36 Calm 30.06 1018 10 16 0.00 0.00
4:53 pm 16:53 Mostly Cloudy 82 27.8 61 16.1 49 49 Calm 30.05 1018 10 16 0.00 0.00
5:53 pm 17:53 Partly Cloudy 80 26.7 65 18.3 60 60 Calm 30.04 1017 10 16 0.00 0.00
6:53 pm 18:53 Mostly Cloudy 75 23.9 65 18.3 71 71 Calm 30.04 1017 10 16 0.00 0.00
7:53 pm 19:53 Sunny 73 22.8 66 18.9 79 79 Calm 30.04 1017 10 16 0.00 0.00
8:53 pm 20:53 Clear 69 20.6 64 17.8 84 84 Calm 30.04 1017 10 16 0.00 0.00
9:53 pm 21:53 Clear 68 20 64 17.8 87 87 Calm 30.06 1018 10 16 0.00 0.00
10:53 pm 22:53 Clear 66 18.9 64 17.8 93 93 Calm 30.07 1018 10 16 0.00 0.00
11:53 pm 23:53 Clear 65 18.3 63 17.2 93 93 Calm 30.07 1018 10 16 0.00 0.00

Powered by AerisWeather